Time,TemperatureF,DewpointF,PressureIn,WindDirection,WindDirectionDegrees,WindSpeedMPH,WindSpeedGustMPH,Humidity,HourlyPrecipIn,Conditions,Clouds,dailyrainin,SoftwareType,DateUTC
2013-03-10 00:00:00,65.1,48.6,30.07,ENE,68,0.0,0.0,55,0.00,,---,0.04,VWS V13.01,2013-03-10 05:00:00,
2013-03-10 00:05:00,65.1,48.6,30.07,ENE,68,0.0,0.0,55,0.00,,---,0.04,VWS V13.01,2013-03-10 05:05:00,
2013-03-10 00:10:00,65.1,49.0,30.06,NE,45,0.0,0.0,56,0.00,,---,0.04,VWS V13.01,2013-03-10 05:10:00,
2013-03-10 00:15:00,65.3,49.2,30.05,NE,45,0.0,0.0,56,0.00,,---,0.04,VWS V13.01,2013-03-10 05:15:00,
2013-03-10 00:20:00,65.3,48.7,30.06,NE,45,0.0,0.0,55,0.00,,---,0.04,VWS V13.01,2013-03-10 05:20:00,
2013-03-10 00:25:00,65.7,49.1,30.06,ENE,68,0.0,1.3,55,0.00,,---,0.04,VWS V13.01,2013-03-10 05:25:00,
2013-03-10 00:30:00,65.7,48.6,30.05,ENE,68,0.0,1.3,54,0.00,,---,0.04,VWS V13.01,2013-03-10 05:30:00,
2013-03-10 00:35:00,65.8,48.8,30.06,ENE,68,0.0,1.3,54,0.00,,---,0.04,VWS V13.01,2013-03-10 05:35:00,
2013-03-10 00:40:00,66.4,49.2,30.06,ENE,68,0.0,1.3,54,0.00,,---,0.04,VWS V13.01,2013-03-10 05:40:00,
2013-03-10 00:45:00,66.4,48.8,30.05,ENE,68,0.0,1.3,53,0.00,,---,0.04,VWS V13.01,2013-03-10 05:45:00,
2013-03-10 00:50:00,66.4,48.8,30.05,ENE,68,1.3,1.3,53,0.00,,---,0.04,VWS V13.01,2013-03-10 05:50:00,
2013-03-10 00:55:00,66.4,48.8,30.06,East,90,0.0,2.0,53,0.00,,---,0.04,VWS V13.01,2013-03-10 05:55:00,
2013-03-10 01:00:00,66.6,49.4,30.06,SE,135,0.0,2.0,54,0.00,,---,0.04,VWS V13.01,2013-03-10 06:00:00,
2013-03-10 01:05:00,66.6,49.4,30.06,SE,135,0.0,2.0,54,0.00,,---,0.04,VWS V13.01,2013-03-10 06:05:00,
2013-03-10 01:10:00,66.6,48.9,30.05,ENE,68,0.0,2.9,53,0.00,,---,0.04,VWS V13.01,2013-03-10 06:10:00,
2013-03-10 01:15:00,66.6,48.9,30.04,NE,45,0.0,3.1,53,0.00,,---,0.04,VWS V13.01,2013-03-10 06:15:00,
2013-03-10 01:20:00,66.6,48.9,30.03,ENE,68,2.2,3.6,53,0.00,,---,0.04,VWS V13.01,2013-03-10 06:20:00,
2013-03-10 01:25:00,66.6,48.9,30.03,ESE,112,0.0,3.6,53,0.00,,---,0.04,VWS V13.01,2013-03-10 06:25:00,
2013-03-10 01:30:00,66.6,48.9,30.04,SE,135,2.7,3.6,53,0.00,,---,0.04,VWS V13.01,2013-03-10 06:30:00,
2013-03-10 01:35:00,66.4,48.8,30.04,ESE,112,0.0,3.6,53,0.00,,---,0.04,VWS V13.01,2013-03-10 06:35:00,
2013-03-10 01:40:00,66.4,48.8,30.03,ENE,68,0.0,3.6,53,0.00,,---,0.04,VWS V13.01,2013-03-10 06:40:00,
2013-03-10 01:45:00,66.2,48.6,30.03,ENE,68,0.0,3.6,53,0.00,,---,0.04,VWS V13.01,2013-03-10 06:45:00,
2013-03-10 01:50:00,66.0,48.4,30.03,East,90,0.0,3.6,53,0.00,,---,0.04,VWS V13.01,2013-03-10 06:50:00,
2013-03-10 01:55:00,66.0,48.4,30.01,ENE,68,0.0,3.6,53,0.00,,---,0.04,VWS V13.01,2013-03-10 06:55:00,
2013-03-10 03:00:00,66.0,48.9,30.01,ENE,68,0.0,0.0,54,0.00,,---,0.04,VWS V13.01,2013-03-10 07:00:00,
2013-03-10 03:05:00,66.0,48.4,30.02,NNE,22,0.0,0.0,53,0.00,,---,0.04,VWS V13.01,2013-03-10 07:05:00,
2013-03-10 03:10:00,65.8,48.2,30.02,NE,45,0.0,0.0,53,0.00,,---,0.04,VWS V13.01,2013-03-10 07:10:00,
2013-03-10 03:15:00,65.8,48.2,30.01,NE,45,0.0,0.0,53,0.00,,---,0.04,VWS V13.01,2013-03-10 07:15:00,
2013-03-10 03:20:00,65.7,48.1,30.00,NE,45,0.0,0.0,53,0.00,,---,0.04,VWS V13.01,2013-03-10 07:20:00,
2013-03-10 03:25:00,65.7,48.1,30.00,NE,45,0.0,0.0,53,0.00,,---,0.04,VWS V13.01,2013-03-10 07:25:00,
2013-03-10 03:30:00,65.7,48.1,30.00,NE,45,0.0,0.0,53,0.00,,---,0.04,VWS V13.01,2013-03-10 07:30:00,
2013-03-10 03:35:00,65.5,47.9,30.00,NE,45,0.0,0.0,53,0.00,,---,0.04,VWS V13.01,2013-03-10 07:35:00,
2013-03-10 03:40:00,65.5,48.4,30.00,East,90,0.0,0.0,54,0.00,,---,0.04,VWS V13.01,2013-03-10 07:40:00,
2013-03-10 03:45:00,65.3,48.2,30.01,East,90,0.0,0.0,54,0.00,,---,0.04,VWS V13.01,2013-03-10 07:45:00,
2013-03-10 03:50:00,65.3,48.2,30.01,ESE,112,0.0,0.0,54,0.00,,---,0.04,VWS V13.01,2013-03-10 07:50:00,
2013-03-10 03:55:00,65.3,48.2,30.01,East,90,0.0,0.0,54,0.00,,---,0.04,VWS V13.01,2013-03-10 07:55:00,
2013-03-10 04:00:00,65.1,48.1,30.01,East,90,0.0,0.0,54,0.00,,---,0.04,VWS V13.01,2013-03-10 08:00:00,
2013-03-10 04:05:00,65.3,48.7,30.01,East,90,0.0,0.0,55,0.00,,---,0.04,VWS V13.01,2013-03-10 08:05:00,
2013-03-10 04:10:00,65.1,48.6,30.01,East,90,0.0,0.0,55,0.00,,---,0.04,VWS V13.01,2013-03-10 08:10:00,
2013-03-10 04:15:00,64.9,48.4,30.01,East,90,0.0,0.0,55,0.00,,---,0.04,VWS V13.01,2013-03-10 08:15:00,
2013-03-10 04:20:00,64.8,48.2,30.01,East,90,0.0,0.0,55,0.00,,---,0.04,VWS V13.01,2013-03-10 08:20:00,
2013-03-10 04:25:00,64.6,48.5,30.00,East,90,0.0,0.0,56,0.00,,---,0.04,VWS V13.01,2013-03-10 08:25:00,
2013-03-10 04:30:00,64.4,48.4,29.99,East,90,0.0,0.0,56,0.00,,---,0.04,VWS V13.01,2013-03-10 08:30:00,
2013-03-10 04:35:00,63.9,48.3,30.00,East,90,0.0,0.0,57,0.00,,---,0.04,VWS V13.01,2013-03-10 08:35:00,
2013-03-10 04:40:00,63.7,48.2,29.99,East,90,0.0,0.0,57,0.00,,---,0.04,VWS V13.01,2013-03-10 08:40:00,
2013-03-10 04:45:00,63.7,48.6,29.99,East,90,0.0,0.0,58,0.00,,---,0.04,VWS V13.01,2013-03-10 08:45:00,
2013-03-10 04:50:00,63.5,48.9,29.99,East,90,0.0,0.0,59,0.00,,---,0.04,VWS V13.01,2013-03-10 08:50:00,
2013-03-10 04:55:00,63.5,48.9,29.99,SSE,158,0.0,0.0,59,0.00,,---,0.04,VWS V13.01,2013-03-10 08:55:00,
2013-03-10 05:00:00,63.9,49.3,29.98,SE,135,0.0,0.0,59,0.00,,---,0.04,VWS V13.01,2013-03-10 09:00:00,
2013-03-10 05:05:00,64.0,49.9,29.98,ESE,112,1.8,3.8,60,0.00,,---,0.04,VWS V13.01,2013-03-10 09:05:00,
2013-03-10 05:10:00,64.6,50.4,29.99,NE,45,0.0,3.8,60,0.00,,---,0.04,VWS V13.01,2013-03-10 09:10:00,
2013-03-10 05:15:00,65.1,50.9,30.00,NE,45,0.0,3.8,60,0.00,,---,0.04,VWS V13.01,2013-03-10 09:15:00,
2013-03-10 05:20:00,65.7,50.5,30.01,ENE,68,0.0,3.8,58,0.00,,---,0.04,VWS V13.01,2013-03-10 09:20:00,
2013-03-10 05:25:00,65.8,50.7,30.01,NE,45,1.1,3.8,58,0.00,,---,0.04,VWS V13.01,2013-03-10 09:25:00,
2013-03-10 05:30:00,66.4,50.7,30.01,NE,45,1.6,4.7,57,0.00,,---,0.04,VWS V13.01,2013-03-10 09:30:00,
2013-03-10 05:35:00,66.6,50.4,30.01,NE,45,0.0,4.7,56,0.00,,---,0.04,VWS V13.01,2013-03-10 09:35:00,
2013-03-10 05:40:00,66.6,50.4,30.01,ENE,68,0.9,4.7,56,0.00,,---,0.04,VWS V13.01,2013-03-10 09:40:00,
2013-03-10 05:45:00,66.6,49.9,30.02,NE,45,0.0,4.7,55,0.00,,---,0.04,VWS V13.01,2013-03-10 09:45:00,
2013-03-10 05:50:00,66.6,49.4,30.01,NE,45,0.0,4.7,54,0.00,,---,0.04,VWS V13.01,2013-03-10 09:50:00,
2013-03-10 05:55:00,66.4,49.2,30.02,ENE,68,0.0,4.7,54,0.00,,---,0.04,VWS V13.01,2013-03-10 09:55:00,
2013-03-10 06:00:00,66.0,48.9,30.01,ENE,68,0.0,0.0,54,0.00,,---,0.04,VWS V13.01,2013-03-10 10:00:00,
2013-03-10 06:05:00,65.8,48.8,30.01,ENE,68,0.0,0.0,54,0.00,,---,0.04,VWS V13.01,2013-03-10 10:05:00,
2013-03-10 06:10:00,65.7,48.6,30.01,ENE,68,0.0,1.3,54,0.00,,---,0.04,VWS V13.01,2013-03-10 10:10:00,
2013-03-10 06:15:00,65.5,48.4,30.01,ENE,68,0.0,1.3,54,0.00,,---,0.04,VWS V13.01,2013-03-10 10:15:00,
2013-03-10 06:20:00,65.3,48.2,30.01,ENE,68,0.0,1.3,54,0.00,,---,0.04,VWS V13.01,2013-03-10 10:20:00,
2013-03-10 06:25:00,64.9,48.4,30.01,ENE,68,0.0,1.3,55,0.00,,---,0.04,VWS V13.01,2013-03-10 10:25:00,
2013-03-10 06:30:00,64.9,48.4,30.01,ENE,68,0.0,1.3,55,0.00,,---,0.04,VWS V13.01,2013-03-10 10:30:00,
2013-03-10 06:35:00,64.8,48.2,30.01,ENE,68,0.0,1.3,55,0.00,,---,0.04,VWS V13.01,2013-03-10 10:35:00,
2013-03-10 06:40:00,64.8,48.2,30.01,ENE,68,0.0,1.3,55,0.00,,---,0.04,VWS V13.01,2013-03-10 10:40:00,
2013-03-10 06:45:00,64.6,48.5,30.01,ENE,68,0.0,1.3,56,0.00,,---,0.04,VWS V13.01,2013-03-10 10:45:00,
2013-03-10 06:50:00,64.6,48.5,30.01,ENE,68,0.0,1.3,56,0.00,,---,0.04,VWS V13.01,2013-03-10 10:50:00,
2013-03-10 06:55:00,64.6,49.0,30.01,ENE,68,0.0,1.3,57,0.00,,---,0.04,VWS V13.01,2013-03-10 10:55:00,
2013-03-10 07:00:00,64.6,49.0,30.01,ENE,68,0.0,1.3,57,0.00,,---,0.04,VWS V13.01,2013-03-10 11:00:00,
2013-03-10 07:05:00,64.6,49.0,30.01,ENE,68,0.0,0.0,57,0.00,,---,0.04,VWS V13.01,2013-03-10 11:05:00,
2013-03-10 07:10:00,64.6,49.0,30.02,ENE,68,0.0,0.0,57,0.00,,---,0.04,VWS V13.01,2013-03-10 11:10:00,
2013-03-10 07:15:00,64.8,49.2,30.02,ENE,68,0.0,0.0,57,0.00,,---,0.04,VWS V13.01,2013-03-10 11:15:00,
2013-03-10 07:20:00,64.9,49.4,30.01,ENE,68,0.0,0.0,57,0.00,,---,0.04,VWS V13.01,2013-03-10 11:20:00,
2013-03-10 07:25:00,65.1,50.0,30.01,ENE,68,0.0,0.7,58,0.00,,---,0.04,VWS V13.01,2013-03-10 11:25:00,
2013-03-10 07:30:00,65.3,49.7,30.01,ENE,68,0.0,0.7,57,0.00,,---,0.04,VWS V13.01,2013-03-10 11:30:00,
2013-03-10 07:35:00,65.5,49.4,30.01,ENE,68,0.0,3.8,56,0.00,,---,0.04,VWS V13.01,2013-03-10 11:35:00,
2013-03-10 07:40:00,65.7,49.6,30.01,ESE,112,0.0,3.8,56,0.00,,---,0.04,VWS V13.01,2013-03-10 11:40:00,
2013-03-10 07:45:00,65.5,49.4,30.02,ESE,112,0.0,3.8,56,0.00,,---,0.04,VWS V13.01,2013-03-10 11:45:00,
2013-03-10 07:50:00,65.7,49.6,30.02,NNE,22,0.0,3.8,56,0.00,,---,0.04,VWS V13.01,2013-03-10 11:50:00,
2013-03-10 07:55:00,65.5,49.4,30.02,ESE,112,0.0,3.8,56,0.00,,---,0.04,VWS V13.01,2013-03-10 11:55:00,
2013-03-10 08:00:00,65.7,49.6,30.02,ESE,112,0.0,3.8,56,0.00,,---,0.04,VWS V13.01,2013-03-10 12:00:00,
2013-03-10 08:05:00,65.8,49.7,30.02,East,90,0.0,0.0,56,0.00,,---,0.04,VWS V13.01,2013-03-10 12:05:00,
2013-03-10 08:10:00,66.0,49.4,30.03,ENE,68,0.0,1.3,55,0.00,,---,0.04,VWS V13.01,2013-03-10 12:10:00,
2013-03-10 08:15:00,66.4,49.7,30.03,NE,45,0.0,1.3,55,0.00,,---,0.04,VWS V13.01,2013-03-10 12:15:00,
2013-03-10 08:20:00,66.4,49.7,30.04,NE,45,0.0,1.3,55,0.00,,---,0.04,VWS V13.01,2013-03-10 12:20:00,
2013-03-10 08:25:00,66.4,49.7,30.04,NE,45,0.0,1.3,55,0.00,,---,0.04,VWS V13.01,2013-03-10 12:25:00,
2013-03-10 08:30:00,66.6,49.9,30.04,NE,45,0.0,1.3,55,0.00,,---,0.04,VWS V13.01,2013-03-10 12:30:00,
2013-03-10 08:35:00,66.7,50.1,30.04,ENE,68,0.0,1.3,55,0.00,,---,0.04,VWS V13.01,2013-03-10 12:35:00,
2013-03-10 08:40:00,66.9,50.2,30.04,East,90,0.0,5.4,55,0.00,,---,0.04,VWS V13.01,2013-03-10 12:40:00,
2013-03-10 08:45:00,67.1,49.9,30.04,NE,45,0.0,5.4,54,0.00,,---,0.04,VWS V13.01,2013-03-10 12:45:00,
2013-03-10 08:50:00,67.1,50.4,30.04,ENE,68,1.1,5.4,55,0.00,,---,0.04,VWS V13.01,2013-03-10 12:50:00,
2013-03-10 08:55:00,67.3,50.6,30.04,NE,45,0.0,5.4,55,0.00,,---,0.04,VWS V13.01,2013-03-10 12:55:00,
2013-03-10 09:00:00,67.6,50.9,30.04,NE,45,0.0,5.4,55,0.00,,---,0.04,VWS V13.01,2013-03-10 13:00:00,
2013-03-10 09:05:00,67.6,50.9,30.04,ESE,112,0.0,2.7,55,0.00,,---,0.04,VWS V13.01,2013-03-10 13:05:00,
2013-03-10 09:10:00,68.2,51.4,30.05,ENE,68,0.0,3.6,55,0.00,,---,0.04,VWS V13.01,2013-03-10 13:10:00,
2013-03-10 09:15:00,68.4,51.1,30.05,NE,45,0.0,5.1,54,0.00,,---,0.04,VWS V13.01,2013-03-10 13:15:00,
2013-03-10 09:20:00,68.7,51.4,30.04,NE,45,0.0,5.1,54,0.00,,---,0.04,VWS V13.01,2013-03-10 13:20:00,
2013-03-10 09:25:00,69.3,49.8,30.04,ENE,68,7.8,13.2,50,0.00,,---,0.04,VWS V13.01,2013-03-10 13:25:00,
2013-03-10 09:30:00,69.6,49.1,30.05,East,90,2.9,13.2,48,0.00,,---,0.04,VWS V13.01,2013-03-10 13:30:00,
2013-03-10 09:35:00,70.5,49.9,30.04,East,90,3.1,13.2,48,0.00,,---,0.04,VWS V13.01,2013-03-10 13:35:00,
2013-03-10 09:40:00,71.1,49.3,30.04,ENE,68,7.4,13.2,46,0.00,,---,0.04,VWS V13.01,2013-03-10 13:40:00,
2013-03-10 09:45:00,71.2,48.2,30.04,NE,45,5.4,13.2,44,0.00,,---,0.04,VWS V13.01,2013-03-10 13:45:00,
2013-03-10 09:50:00,71.1,47.5,30.05,ENE,68,0.0,13.2,43,0.00,,---,0.04,VWS V13.01,2013-03-10 13:50:00,
2013-03-10 09:55:00,71.1,48.1,30.05,East,90,2.5,13.2,44,0.00,,---,0.04,VWS V13.01,2013-03-10 13:55:00,
2013-03-10 10:00:00,70.7,47.7,30.05,ESE,112,0.0,13.2,44,0.00,,---,0.04,VWS V13.01,2013-03-10 14:00:00,
2013-03-10 10:05:00,71.1,48.1,30.05,ENE,68,2.5,9.2,44,0.00,,---,0.04,VWS V13.01,2013-03-10 14:05:00,
2013-03-10 10:10:00,71.2,48.2,30.05,ENE,68,5.6,9.2,44,0.00,,---,0.04,VWS V13.01,2013-03-10 14:10:00,
2013-03-10 10:15:00,71.1,47.5,30.05,SE,135,4.5,9.2,43,0.00,,---,0.04,VWS V13.01,2013-03-10 14:15:00,
2013-03-10 10:20:00,71.2,47.6,30.05,ESE,112,2.5,9.2,43,0.00,,---,0.04,VWS V13.01,2013-03-10 14:20:00,
2013-03-10 10:25:00,71.4,47.8,30.05,ESE,112,4.9,9.2,43,0.00,,---,0.04,VWS V13.01,2013-03-10 14:25:00,
2013-03-10 10:30:00,71.4,47.8,30.05,SE,135,10.1,10.1,43,0.00,,---,0.04,VWS V13.01,2013-03-10 14:30:00,
2013-03-10 10:35:00,71.4,47.8,30.05,ESE,112,7.2,10.1,43,0.00,,---,0.04,VWS V13.01,2013-03-10 14:35:00,
2013-03-10 10:40:00,71.2,47.6,30.05,NE,45,2.5,10.1,43,0.00,,---,0.04,VWS V13.01,2013-03-10 14:40:00,
2013-03-10 10:45:00,72.3,48.6,30.05,East,90,7.2,11.4,43,0.00,,---,0.04,VWS V13.01,2013-03-10 14:45:00,
2013-03-10 10:50:00,72.5,48.1,30.05,ENE,68,2.5,11.4,42,0.00,,---,0.04,VWS V13.01,2013-03-10 14:50:00,
2013-03-10 10:55:00,73.0,48.6,30.05,East,90,4.9,11.4,42,0.00,,---,0.04,VWS V13.01,2013-03-10 14:55:00,
2013-03-10 11:00:00,73.2,48.1,30.05,ESE,112,2.9,11.4,41,0.00,,---,0.04,VWS V13.01,2013-03-10 15:00:00,
2013-03-10 11:05:00,73.8,49.3,30.05,ESE,112,0.0,5.6,42,0.00,,---,0.04,VWS V13.01,2013-03-10 15:05:00,
2013-03-10 11:10:00,73.2,46.8,30.05,ENE,68,5.8,9.6,39,0.00,,---,0.04,VWS V13.01,2013-03-10 15:10:00,
2013-03-10 11:15:00,73.4,47.6,30.05,NE,45,4.3,10.7,40,0.00,,---,0.04,VWS V13.01,2013-03-10 15:15:00,
2013-03-10 11:20:00,73.6,47.8,30.05,ESE,112,1.8,10.7,40,0.00,,---,0.04,VWS V13.01,2013-03-10 15:20:00,
2013-03-10 11:25:00,74.1,48.3,30.06,ENE,68,8.3,10.7,40,0.00,,---,0.04,VWS V13.01,2013-03-10 15:25:00,
2013-03-10 11:30:00,74.7,48.1,30.05,SE,135,3.6,10.7,39,0.00,,---,0.04,VWS V13.01,2013-03-10 15:30:00,
2013-03-10 11:35:00,75.0,48.4,30.05,East,90,1.8,10.7,39,0.00,,---,0.04,VWS V13.01,2013-03-10 15:35:00,
2013-03-10 11:40:00,75.7,48.4,30.06,ESE,112,9.0,10.7,38,0.00,,---,0.04,VWS V13.01,2013-03-10 15:40:00,
2013-03-10 11:45:00,75.9,48.5,30.06,ESE,112,1.8,10.7,38,0.00,,---,0.04,VWS V13.01,2013-03-10 15:45:00,
2013-03-10 11:50:00,75.6,47.5,30.06,ENE,68,2.9,10.7,37,0.00,,---,0.04,VWS V13.01,2013-03-10 15:50:00,
2013-03-10 11:55:00,75.4,47.3,30.05,ESE,112,6.5,10.7,37,0.00,,---,0.04,VWS V13.01,2013-03-10 15:55:00,
2013-03-10 12:00:00,75.4,48.0,30.06,SE,135,3.1,10.7,38,0.00,,---,0.00,VWS V13.01,2013-03-10 16:00:00,
2013-03-10 12:05:00,75.4,48.0,30.06,ENE,68,7.2,7.2,38,0.00,,---,0.00,VWS V13.01,2013-03-10 16:05:00,
2013-03-10 12:10:00,74.8,46.8,30.05,East,90,3.4,7.2,37,0.00,,---,0.00,VWS V13.01,2013-03-10 16:10:00,
2013-03-10 12:15:00,75.2,47.9,30.06,East,90,2.7,9.4,38,0.00,,---,0.00,VWS V13.01,2013-03-10 16:15:00,
2013-03-10 12:20:00,74.7,47.4,30.05,ENE,68,1.3,9.4,38,0.00,,---,0.00,VWS V13.01,2013-03-10 16:20:00,
2013-03-10 12:25:00,75.4,48.0,30.05,East,90,1.8,9.4,38,0.00,,---,0.00,VWS V13.01,2013-03-10 16:25:00,
2013-03-10 12:30:00,74.8,47.6,30.05,ENE,68,2.0,12.3,38,0.00,,---,0.00,VWS V13.01,2013-03-10 16:30:00,
2013-03-10 12:35:00,74.8,47.6,30.05,ENE,68,6.3,12.3,38,0.00,,---,0.00,VWS V13.01,2013-03-10 16:35:00,
2013-03-10 12:40:00,75.2,47.9,30.05,East,90,2.2,12.3,38,0.00,,---,0.00,VWS V13.01,2013-03-10 16:40:00,
2013-03-10 12:45:00,75.9,47.1,30.05,East,90,10.1,12.3,36,0.00,,---,0.00,VWS V13.01,2013-03-10 16:45:00,
2013-03-10 12:50:00,76.1,48.0,30.05,ESE,112,4.3,12.3,37,0.00,,---,0.00,VWS V13.01,2013-03-10 16:50:00,
2013-03-10 12:55:00,75.9,47.8,30.04,ESE,112,0.0,12.3,37,0.00,,---,0.00,VWS V13.01,2013-03-10 16:55:00,
2013-03-10 13:00:00,75.7,47.7,30.04,ESE,112,5.1,12.3,37,0.00,,---,0.00,VWS V13.01,2013-03-10 17:00:00,
2013-03-10 13:05:00,75.7,47.7,30.04,East,90,0.0,7.8,37,0.00,,---,0.00,VWS V13.01,2013-03-10 17:05:00,
2013-03-10 13:10:00,75.4,48.0,30.03,ENE,68,7.8,9.0,38,0.00,,---,0.00,VWS V13.01,2013-03-10 17:10:00,
2013-03-10 13:15:00,75.4,48.0,30.03,ESE,112,2.7,9.0,38,0.00,,---,0.00,VWS V13.01,2013-03-10 17:15:00,
2013-03-10 13:20:00,75.7,48.4,30.03,ENE,68,6.9,11.6,38,0.00,,---,0.00,VWS V13.01,2013-03-10 17:20:00,
2013-03-10 13:25:00,76.5,48.3,30.03,East,90,3.1,11.6,37,0.00,,---,0.00,VWS V13.01,2013-03-10 17:25:00,
2013-03-10 13:30:00,76.5,48.3,30.03,ESE,112,0.0,11.6,37,0.00,,---,0.00,VWS V13.01,2013-03-10 17:30:00,
2013-03-10 14:00:00,77.4,48.3,30.01,ESE,112,3.8,11.6,36,0.00,,---,0.00,VWS V13.01,2013-03-10 18:00:00,
2013-03-10 15:00:00,77.5,50.0,30.00,East,90,7.4,12.3,38,0.00,,---,0.00,VWS V13.01,2013-03-10 19:00:00,
2013-03-10 16:00:00,77.9,49.6,29.99,SE,135,3.6,12.3,37,0.00,,---,0.00,VWS V13.01,2013-03-10 20:00:00,
2013-03-10 17:00:00,76.1,52.6,29.98,ENE,68,2.0,10.7,44,0.00,,---,0.00,VWS V13.01,2013-03-10 21:00:00,
2013-03-10 18:00:00,73.8,51.7,29.98,NE,45,0.0,10.7,46,0.00,,---,0.00,VWS V13.01,2013-03-10 22:00:00,
2013-03-10 19:00:00,72.5,50.6,29.99,NE,45,0.0,14.8,46,0.00,,---,0.00,VWS V13.01,2013-03-10 23:00:00,
2013-03-10 20:00:00,70.7,49.5,29.99,ENE,68,0.0,7.8,47,0.00,,---,0.00,VWS V13.01,2013-03-11 00:00:00,
2013-03-10 21:00:00,70.5,52.1,30.00,ENE,68,0.0,10.1,52,0.00,,---,0.00,VWS V13.01,2013-03-11 01:00:00,
2013-03-10 22:00:00,70.7,55.2,30.01,NE,45,2.0,7.8,58,0.00,,---,0.00,VWS V13.01,2013-03-11 02:00:00,
2013-03-10 23:00:00,70.7,56.2,30.02,ENE,68,5.6,10.7,60,0.00,,---,0.00,VWS V13.01,2013-03-11 03:00:00,